Location: Unspecified
(0.0000°N, 0.0000°E)
Time: 11:24:14
(UTC+00:00)

Oscar 11 - Visible Passes

Search period start: 08 December 2019 00:00
Search period end: 18 December 2019 00:00
Orbit: 612 x 626 km, 97.6° (Epoch: 07 December)

Date Brightness Start Highest point End Pass type
(mag) Time Alt. Az. Time Alt. Az. Time Alt. Az.
08 Dec 10.2 19:40:25 10° SW 19:42:48 15° WSW 19:45:10 10° WNW visible
09 Dec 7.5 18:19:56 10° SSE 18:24:00 39° ENE 18:28:01 10° N visible
10 Dec 7.0 18:36:43 10° SSE 18:41:03 72° ENE 18:45:20 10° N visible
11 Dec 7.6 18:53:49 10° S 18:58:06 62° WSW 19:02:22 10° NNW visible
12 Dec 8.8 19:11:13 10° SSW 19:15:08 34° WSW 19:19:03 10° NW visible
13 Dec 9.8 19:29:01 10° SSW 19:32:11 20° WSW 19:35:19 10° NW visible
14 Dec 10.4 19:47:53 10° WSW 19:49:12 11° WSW 19:50:33 10° W visible
15 Dec 7.2 18:26:13 10° SSE 18:30:25 50° ENE 18:34:35 10° N visible
16 Dec 7.1 18:43:08 10° S 18:47:28 88° WSW 18:51:46 10° NNW visible
17 Dec 8.1 19:00:21 10° S 19:04:31 48° WSW 19:08:40 10° NNW visible
